Hourly Weather Barnkowo

Today, 27 September, Sunday

Time Temperature Precipitation Wind Pressure Humidity
00:00 +9°C° 0 mm 3 mps 746 mmHg 90%
01:00 +9°C° 0 mm 2 mps 747 mmHg 92%
02:00 +9°C° 0 mm 2 mps 747 mmHg 92%
03:00 +8°C° 0 mm 2 mps 748 mmHg 91%
04:00 +8°C° 0 mm 2 mps 748 mmHg 90%
05:00 +8°C° 0.2 mm 2 mps 748 mmHg 90%
06:00 +9°C° 0.2 mm 1 mps 748 mmHg 90%
07:00 +9°C° 0 mm 1 mps 749 mmHg 87%
08:00 +9°C° 1.2 mm 1 mps 749 mmHg 89%
09:00 +8°C° 1.2 mm 2 mps 749 mmHg 91%
10:00 +8°C° 1.2 mm 3 mps 749 mmHg 93%
11:00 +8°C° 0.6 mm 3 mps 749 mmHg 93%
12:00 +8°C° 0.6 mm 3 mps 749 mmHg 92%
13:00 +9°C° 0.6 mm 3 mps 750 mmHg 92%
14:00 +9°C° 1 mm 3 mps 750 mmHg 92%
15:00 +9°C° 1 mm 3 mps 750 mmHg 92%
16:00 +8°C° 1 mm 4 mps 750 mmHg 92%
17:00 +9°C° 0.4 mm 3 mps 751 mmHg 92%
18:00 +9°C° 0.4 mm 3 mps 751 mmHg 92%
19:00 +9°C° 0.4 mm 2 mps 751 mmHg 92%
20:00 +9°C° 0.2 mm 2 mps 752 mmHg 92%
21:00 +9°C° 0.2 mm 3 mps 753 mmHg 92%
22:00 +9°C° 0.2 mm 3 mps 753 mmHg 92%
23:00 +9°C° 0.1 mm 2 mps 753 mmHg 91%

Tomorrow, 28 September, Monday

Time Temperature Precipitation Wind Pressure Humidity
00:00 +9°C° 0.1 mm 2 mps 754 mmHg 91%
01:00 +10°C° 0.1 mm 2 mps 754 mmHg 90%
02:00 +9°C° 0 mm 2 mps 754 mmHg 91%
03:00 +8°C° 0 mm 2 mps 755 mmHg 91%
04:00 +8°C° 0 mm 2 mps 755 mmHg 92%
05:00 +8°C° 0 mm 2 mps 755 mmHg 91%
06:00 +8°C° 0 mm 2 mps 756 mmHg 90%
07:00 +8°C° 0 mm 3 mps 756 mmHg 89%
08:00 +10°C° 0 mm 3 mps 756 mmHg 82%
09:00 +12°C° 0 mm 3 mps 757 mmHg 75%
10:00 +14°C° 0 mm 4 mps 757 mmHg 68%
11:00 +15°C° 0 mm 4 mps 757 mmHg 63%
12:00 +17°C° 0 mm 4 mps 757 mmHg 58%
13:00 +18°C° 0 mm 4 mps 757 mmHg 53%
14:00 +18°C° 0 mm 3 mps 757 mmHg 54%
15:00 +18°C° 0 mm 3 mps 757 mmHg 56%
16:00 +18°C° 0 mm 3 mps 757 mmHg 58%
17:00 +17°C° 0 mm 2 mps 757 mmHg 60%
18:00 +16°C° 0 mm 2 mps 757 mmHg 62%
19:00 +15°C° 0 mm 1 mps 757 mmHg 65%
20:00 +14°C° 0 mm 1 mps 758 mmHg 66%
21:00 +14°C° 0 mm 1 mps 758 mmHg 68%
22:00 +14°C° 0 mm 1 mps 758 mmHg 70%
23:00 +14°C° 0 mm 1 mps 758 mmHg 70%

Day after tomorrow, 29 September, Tuesday

Time Temperature Precipitation Wind Pressure Humidity
00:00 +14°C° 0 mm 1 mps 758 mmHg 71%
01:00 +14°C° 0 mm 1 mps 758 mmHg 72%
02:00 +13°C° 0 mm 1 mps 758 mmHg 74%
03:00 +13°C° 0 mm 1 mps 758 mmHg 77%
04:00 +13°C° 0 mm 1 mps 758 mmHg 79%
05:00 +13°C° 0 mm 1 mps 758 mmHg 79%
06:00 +13°C° 0 mm 1 mps 759 mmHg 79%
07:00 +13°C° 0 mm 1 mps 759 mmHg 80%
08:00 +13°C° 0 mm 0 mps 759 mmHg 77%
09:00 +14°C° 0 mm 0 mps 759 mmHg 74%
10:00 +15°C° 0 mm 0 mps 759 mmHg 71%
11:00 +15°C° 0 mm 0 mps 759 mmHg 69%
12:00 +18°C° 0 mm 1 mps 759 mmHg 67%
13:00 +18°C° 0 mm 1 mps 759 mmHg 65%
14:00 +18°C° 0 mm 1 mps 759 mmHg 65%
15:00 +19°C° 0 mm 1 mps 759 mmHg 66%
16:00 +19°C° 0 mm 1 mps 759 mmHg 66%
17:00 +16°C° 0 mm 1 mps 759 mmHg 72%
18:00 +15°C° 0 mm 1 mps 759 mmHg 77%
19:00 +13°C° 0 mm 0 mps 759 mmHg 82%
20:00 +12°C° 0 mm 0 mps 759 mmHg 83%
21:00 +12°C° 0 mm 0 mps 760 mmHg 83%
22:00 +12°C° 0 mm 0 mps 760 mmHg 84%
23:00 +11°C° 0 mm 0 mps 760 mmHg 84%

30 September, Wednesday

Time Temperature Precipitation Wind Pressure Humidity
00:00 +11°C° 0 mm 0 mps 759 mmHg 84%
01:00 +11°C° 0 mm 0 mps 759 mmHg 85%
02:00 +10°C° 0 mm 0 mps 759 mmHg 85%
03:00 +10°C° 0 mm 0 mps 759 mmHg 86%
04:00 +10°C° 0 mm 0 mps 759 mmHg 86%
05:00 +10°C° 0 mm 0 mps 759 mmHg 85%
06:00 +10°C° 0 mm 0 mps 759 mmHg 85%
07:00 +11°C° 0 mm 0 mps 759 mmHg 84%
08:00 +12°C° 0 mm 0 mps 759 mmHg 77%
09:00 +14°C° 0 mm 0 mps 759 mmHg 70%
10:00 +18°C° 0 mm 1 mps 759 mmHg 64%
11:00 +19°C° 0 mm 1 mps 759 mmHg 60%
12:00 +18°C° 0 mm 0 mps 759 mmHg 56%
13:00 +19°C° 0 mm 0 mps 758 mmHg 53%
14:00 +19°C° 0 mm 0 mps 758 mmHg 53%
15:00 +19°C° 0 mm 0 mps 758 mmHg 53%
16:00 +19°C° 0 mm 0 mps 758 mmHg 54%
17:00 +17°C° 0 mm 0 mps 758 mmHg 58%
18:00 +16°C° 0 mm 1 mps 758 mmHg 63%
19:00 +15°C° 0 mm 1 mps 758 mmHg 68%
20:00 +14°C° 0 mm 1 mps 758 mmHg 69%
21:00 +14°C° 0 mm 1 mps 758 mmHg 70%
22:00 +13°C° 0 mm 1 mps 758 mmHg 71%
23:00 +13°C° 0 mm 1 mps 757 mmHg 72%

1 October, Thursday

Time Temperature Precipitation Wind Pressure Humidity
00:00 +12°C° 0 mm 1 mps 757 mmHg 74%
01:00 +12°C° 0 mm 1 mps 757 mmHg 75%
02:00 +12°C° 0 mm 1 mps 756 mmHg 78%
03:00 +12°C° 0 mm 1 mps 756 mmHg 80%
04:00 +11°C° 0 mm 1 mps 756 mmHg 83%
05:00 +11°C° 0 mm 1 mps 755 mmHg 84%
06:00 +12°C° 0 mm 1 mps 755 mmHg 85%
07:00 +12°C° 0 mm 2 mps 755 mmHg 86%
08:00 +14°C° 0 mm 2 mps 754 mmHg 80%
09:00 +16°C° 0 mm 3 mps 754 mmHg 75%
10:00 +18°C° 0 mm 3 mps 753 mmHg 69%
11:00 +18°C° 0 mm 3 mps 753 mmHg 65%
12:00 +19°C° 0 mm 4 mps 752 mmHg 61%
13:00 +20°C° 0 mm 4 mps 752 mmHg 57%
14:00 +20°C° 0 mm 4 mps 751 mmHg 58%
15:00 +20°C° 0 mm 3 mps 751 mmHg 59%
16:00 +20°C° 0 mm 3 mps 750 mmHg 61%
17:00 +19°C° 0 mm 3 mps 750 mmHg 66%
18:00 +17°C° 0 mm 4 mps 750 mmHg 72%
19:00 +15°C° 0 mm 4 mps 750 mmHg 77%
20:00 +14°C° 0 mm 4 mps 749 mmHg 79%
21:00 +14°C° 0 mm 4 mps 749 mmHg 81%
22:00 +14°C° 0 mm 5 mps 749 mmHg 82%
23:00 +13°C° 0 mm 5 mps 749 mmHg 83%

2 October, Friday

Time Temperature Precipitation Wind Pressure Humidity
00:00 +13°C° 0 mm 5 mps 749 mmHg 84%
01:00 +13°C° 0 mm 4 mps 748 mmHg 85%
02:00 +13°C° 0 mm 4 mps 748 mmHg 85%
03:00 +13°C° 0 mm 4 mps 748 mmHg 84%
04:00 +13°C° 0 mm 4 mps 748 mmHg 84%
05:00 +13°C° 0 mm 4 mps 748 mmHg 82%
06:00 +13°C° 0 mm 4 mps 748 mmHg 81%
07:00 +14°C° 0 mm 4 mps 748 mmHg 79%
08:00 +14°C° 0.1 mm 4 mps 748 mmHg 81%
09:00 +14°C° 0.1 mm 4 mps 749 mmHg 82%
10:00 +14°C° 0.1 mm 4 mps 749 mmHg 83%
11:00 +14°C° 0.2 mm 3 mps 749 mmHg 82%
12:00 +16°C° 0.2 mm 3 mps 749 mmHg 80%
13:00 +17°C° 0.2 mm 3 mps 750 mmHg 79%
14:00 +17°C° 0 mm 3 mps 750 mmHg 79%
15:00 +17°C° 0 mm 2 mps 750 mmHg 80%
16:00 +17°C° 0 mm 2 mps 750 mmHg 80%
17:00 +16°C° 0 mm 2 mps 750 mmHg 82%
18:00 +16°C° 0 mm 2 mps 750 mmHg 84%
19:00 +15°C° 0 mm 1 mps 750 mmHg 85%
20:00 +14°C° 0 mm 1 mps 749 mmHg 87%
21:00 +14°C° 0 mm 2 mps 749 mmHg 89%
22:00 +13°C° 0 mm 2 mps 749 mmHg 91%
23:00 +13°C° 0 mm 2 mps 749 mmHg 90%
Show more